Location: Gudip?du
(17.0263°N, 80.8301°E)
Time: 14:51:34
(UTC+00:00)

USA 267 - Pass Details

Date: 03 August 2024
Orbit: 1096 x 1111 km, 123.1° (Epoch: 09 September)

Event Time Altitude Azimuth Distance (km) Brightness Sun altitude
Exits shadow 13:52:28 - 154° (SSE) 3,689 5.6 -10.7°
Reaches altitude 10° 13:54:27 10° 158° (SSE) 2,939 5.1 -11.2°
Maximum altitude 14:00:45 54° 234° (SW) 1,307 3.9 -12.6°
Drops below altitude 10° 14:07:06 10° 310° (NW) 2,950 6.8 -14.0°
Sets 14:09:39 0° 315° (NW) 3,911 7.5 -14.5°
